TimeCDT,TemperatureF,Dew PointF,Humidity,Sea Level PressureIn,VisibilityMPH,Wind Direction,Wind SpeedMPH,Gust SpeedMPH,PrecipitationIn,Events,Conditions,WindDirDegrees,DateUTC
12:15 AM,28.4,23.0,80,30.02,10.0,NNE,4.6,-,N/A,,Clear,20,2012-11-02 05:15:00
12:35 AM,28.4,23.0,80,30.02,10.0,NNE,5.8,-,N/A,,Clear,20,2012-11-02 05:35:00
12:54 AM,28.4,23.0,80,30.02,10.0,North,3.5,-,N/A,,Clear,10,2012-11-02 05:54:00
1:15 AM,28.4,23.0,80,30.02,10.0,North,3.5,-,N/A,,Clear,10,2012-11-02 06:15:00
1:35 AM,28.4,23.0,80,30.03,10.0,Calm,Calm,-,N/A,,Clear,0,2012-11-02 06:35:00
1:55 AM,26.6,23.0,86,30.04,10.0,Calm,Calm,-,N/A,,Clear,0,2012-11-02 06:55:00
2:15 AM,26.6,23.0,86,30.04,10.0,Calm,Calm,-,N/A,,Clear,0,2012-11-02 07:15:00
2:35 AM,26.6,24.8,93,30.05,10.0,Calm,Calm,-,N/A,,Clear,0,2012-11-02 07:35:00
2:55 AM,26.6,23.0,86,30.05,10.0,Calm,Calm,-,N/A,,Clear,0,2012-11-02 07:55:00
3:15 AM,26.6,23.0,86,30.06,10.0,Calm,Calm,-,N/A,,Clear,0,2012-11-02 08:15:00
3:35 AM,26.6,23.0,86,30.05,10.0,Calm,Calm,-,N/A,,Clear,0,2012-11-02 08:35:00
3:55 AM,26.6,23.0,86,30.05,10.0,Calm,Calm,-,N/A,,Clear,0,2012-11-02 08:55:00
4:15 AM,26.6,23.0,86,30.06,10.0,Calm,Calm,-,N/A,,Clear,0,2012-11-02 09:15:00
4:35 AM,24.8,21.2,86,30.05,10.0,Calm,Calm,-,N/A,,Clear,0,2012-11-02 09:35:00
4:55 AM,24.8,21.2,86,30.05,10.0,Calm,Calm,-,N/A,,Clear,0,2012-11-02 09:55:00
5:14 AM,24.8,21.2,86,30.05,10.0,Calm,Calm,-,N/A,,Clear,0,2012-11-02 10:14:00
5:35 AM,24.8,21.2,86,30.06,10.0,Calm,Calm,-,N/A,,Clear,0,2012-11-02 10:35:00
5:55 AM,24.8,21.2,86,30.06,10.0,NNE,3.5,-,N/A,,Clear,30,2012-11-02 10:55:00
6:14 AM,24.8,21.2,86,30.06,10.0,NE,4.6,-,N/A,,Clear,40,2012-11-02 11:14:00
6:35 AM,26.6,23.0,86,30.06,10.0,NE,4.6,-,N/A,,Clear,40,2012-11-02 11:35:00
6:55 AM,26.6,23.0,86,30.06,10.0,NE,3.5,-,N/A,,Clear,50,2012-11-02 11:55:00
7:15 AM,26.6,23.0,86,30.06,10.0,ENE,3.5,-,N/A,,Clear,60,2012-11-02 12:15:00
7:35 AM,26.6,23.0,86,30.06,10.0,Calm,Calm,-,N/A,,Clear,0,2012-11-02 12:35:00
7:54 AM,26.6,23.0,86,30.07,10.0,Calm,Calm,-,N/A,,Clear,0,2012-11-02 12:54:00
8:14 AM,26.6,24.8,93,30.08,10.0,Calm,Calm,-,N/A,,Clear,0,2012-11-02 13:14:00
8:35 AM,28.4,24.8,86,30.09,10.0,Calm,Calm,-,N/A,,Clear,0,2012-11-02 13:35:00
8:55 AM,28.4,24.8,86,30.09,10.0,Calm,Calm,-,N/A,,Clear,0,2012-11-02 13:55:00
9:15 AM,30.2,26.6,86,30.10,10.0,Calm,Calm,-,N/A,,Clear,0,2012-11-02 14:15:00
9:35 AM,32.0,26.6,80,30.10,10.0,East,3.5,-,N/A,,Clear,80,2012-11-02 14:35:00
9:55 AM,33.8,28.4,81,30.10,10.0,East,8.1,-,N/A,,Clear,90,2012-11-02 14:55:00
10:15 AM,33.8,28.4,81,30.11,10.0,East,8.1,-,N/A,,Clear,90,2012-11-02 15:15:00
10:35 AM,35.6,28.4,75,30.11,10.0,East,8.1,-,N/A,,Clear,90,2012-11-02 15:35:00
10:54 AM,35.6,28.4,75,30.11,10.0,ESE,6.9,-,N/A,,Clear,110,2012-11-02 15:54:00
11:15 AM,35.6,28.4,75,30.11,10.0,East,8.1,-,N/A,,Clear,100,2012-11-02 16:15:00
11:35 AM,35.6,28.4,75,30.11,10.0,East,6.9,-,N/A,,Clear,90,2012-11-02 16:35:00
11:54 AM,37.4,28.4,70,30.11,10.0,ESE,5.8,-,N/A,,Clear,110,2012-11-02 16:54:00
12:15 PM,37.4,28.4,70,30.10,10.0,ESE,5.8,-,N/A,,Clear,110,2012-11-02 17:15:00
12:34 PM,39.2,28.4,65,30.12,10.0,East,3.5,-,N/A,,Clear,80,2012-11-02 17:34:00
12:55 PM,39.2,28.4,65,30.10,10.0,East,4.6,-,N/A,,Clear,100,2012-11-02 17:55:00
1:15 PM,39.2,26.6,61,30.11,10.0,ESE,3.5,-,N/A,,Clear,110,2012-11-02 18:15:00
1:34 PM,39.2,26.6,61,30.10,10.0,East,5.8,-,N/A,,Clear,90,2012-11-02 18:34:00
1:55 PM,39.2,28.4,65,30.11,10.0,ESE,3.5,-,N/A,,Clear,110,2012-11-02 18:55:00
2:15 PM,41.0,28.4,61,30.09,10.0,East,4.6,-,N/A,,Clear,100,2012-11-02 19:15:00
2:35 PM,41.0,26.6,57,30.08,10.0,East,8.1,-,N/A,,Clear,90,2012-11-02 19:35:00
2:55 PM,41.0,28.4,61,30.08,10.0,East,4.6,-,N/A,,Clear,80,2012-11-02 19:55:00
3:14 PM,41.0,28.4,61,30.09,10.0,ESE,3.5,-,N/A,,Clear,120,2012-11-02 20:14:00
3:35 PM,41.0,26.6,57,30.09,10.0,Calm,Calm,-,N/A,,Clear,0,2012-11-02 20:35:00
3:55 PM,42.8,26.6,53,30.08,10.0,East,4.6,-,N/A,,Clear,90,2012-11-02 20:55:00
4:15 PM,42.8,26.6,53,30.08,10.0,East,6.9,-,N/A,,Clear,80,2012-11-02 21:15:00
4:35 PM,42.8,26.6,53,30.07,10.0,East,4.6,-,N/A,,Clear,100,2012-11-02 21:35:00
4:54 PM,42.8,26.6,53,30.06,10.0,ENE,5.8,-,N/A,,Clear,70,2012-11-02 21:54:00
5:15 PM,42.8,26.6,53,30.06,10.0,East,6.9,-,N/A,,Scattered Clouds,80,2012-11-02 22:15:00
5:35 PM,41.0,24.8,53,30.07,10.0,ENE,5.8,-,N/A,,Mostly Cloudy,70,2012-11-02 22:35:00
5:54 PM,39.2,24.8,56,30.07,10.0,Calm,Calm,-,N/A,,Scattered Clouds,0,2012-11-02 22:54:00
6:15 PM,39.2,26.6,61,30.09,10.0,NNE,3.5,-,N/A,,Clear,20,2012-11-02 23:15:00
6:35 PM,39.2,26.6,61,30.09,10.0,NE,3.5,-,N/A,,Clear,50,2012-11-02 23:35:00
6:54 PM,37.4,26.6,65,30.09,10.0,NE,4.6,-,N/A,,Clear,50,2012-11-02 23:54:00
7:15 PM,37.4,26.6,65,30.09,10.0,NE,3.5,-,N/A,,Clear,40,2012-11-03 00:15:00
7:35 PM,37.4,26.6,65,30.10,10.0,NE,3.5,-,N/A,,Clear,40,2012-11-03 00:35:00
7:55 PM,37.4,26.6,65,30.10,10.0,NE,3.5,-,N/A,,Mostly Cloudy,40,2012-11-03 00:55:00
8:15 PM,37.4,26.6,65,30.10,10.0,ENE,4.6,-,N/A,,Overcast,60,2012-11-03 01:15:00
8:34 PM,37.4,26.6,65,30.11,10.0,NNE,3.5,-,N/A,,Overcast,30,2012-11-03 01:34:00
8:55 PM,37.4,26.6,65,30.11,10.0,NNE,4.6,-,N/A,,Overcast,30,2012-11-03 01:55:00
9:15 PM,37.4,26.6,65,30.11,10.0,NE,5.8,-,N/A,,Overcast,50,2012-11-03 02:15:00
9:35 PM,37.4,26.6,65,30.11,10.0,ENE,6.9,-,N/A,,Overcast,60,2012-11-03 02:35:00
9:55 PM,37.4,26.6,65,30.12,10.0,ENE,4.6,-,N/A,,Overcast,60,2012-11-03 02:55:00
10:35 PM,37.4,26.6,65,30.12,10.0,ENE,4.6,-,N/A,,Overcast,60,2012-11-03 03:35:00
10:55 PM,37.4,26.6,65,30.12,10.0,ENE,5.8,-,N/A,,Overcast,60,2012-11-03 03:55:00
11:14 PM,37.4,26.6,65,30.13,10.0,Calm,Calm,-,N/A,,Overcast,0,2012-11-03 04:14:00
11:35 PM,37.4,26.6,65,30.13,10.0,Calm,Calm,-,N/A,,Overcast,0,2012-11-03 04:35:00
11:55 PM,37.4,26.6,65,30.13,10.0,Calm,Calm,-,N/A,,Overcast,0,2012-11-03 04:55:00